Pensacola, FL

6:09 AM CST on February 24, 2017 (GMT -0600)
Pensacola Regional

Weather History for KPNS - September, 2012

Change the Weather History Date:

Friday, September 21, 2012

  Actual Average Record
Temperature  
Mean Temperature 78 °F 77 °F  
Max Temperature 89 °F 86 °F 100 °F (1925)
Min Temperature 66 °F 69 °F 52 °F (1918)
Cooling Degree Days 13 12  
Month to date cooling degree days 316 304  
Year to date cooling degree days 2695 2271  
Growing Degree Days 27 (Base 50)    
Moisture  
Dew Point 66 °F    
Average Humidity 65    
Maximum Humidity 87    
Minimum Humidity 42    
Precipitation  
Precipitation 0.00 in 0.21 in 2.89 in (1898)
Month to date precipitation 2.29 4.21  
Year to date precipitation 59.68 48.98  
Sea Level Pressure  
Sea Level Pressure 30.01 in    
Wind  
Wind Speed 5 mph (NE)    
Max Wind Speed 10 mph    
Max Gust Speed 13 mph    
Visibility 10 miles    
Events      
T = Trace of Precipitation, MM = Missing Value Source: NWS Daily Summary

Daily Weather History Graph

Daily Weather History Graph

Search for Another Location

Airport or City:

Trip Planner

Search our weather history database for the weather conditions in past years. The results will help you decide how hot, cold, wet, or windy it might be!

Date:

Astronomy

Sep. 21, 2012 Rise Set
Actual Time 6:36 AM CDT 6:45 PM CDT
Civil Twilight 6:12 AM CDT 7:09 PM CDT
Nautical Twilight 5:44 AM CDT 7:37 PM CDT
Astronomical Twilight 5:16 AM CDT 8:06 PM CDT
Moon 12:32 PM CDT (9/21) 11:11 PM CDT (9/21)
Length of Visible Light 12h 57m
Length of Day
12h 09m
Waxing Crescent, 37% of the Moon is Illuminated
Sep 21
Waxing Crescent
Sep 22
First Quarter
Sep 29
Full
Oct 8
Last Quarter
Oct 15
New

Hourly Weather History & Observations

Time (CDT) Temp. Heat Index Dew Point Humidity Pressure Visibility Wind Dir Wind Speed Gust Speed Precip Events Conditions
12:53 AM 70.0 °F - 64.9 °F 84% 30.03 in 10.0 mi Calm Calm - 0.01 in   Clear
1:53 AM 70.0 °F - 62.1 °F 76% 30.02 in 10.0 mi NNE 5.8 mph - 0.01 in   Clear
2:53 AM 69.1 °F - 62.1 °F 78% 30.03 in 10.0 mi NE 4.6 mph - N/A   Clear
3:53 AM 69.1 °F - 61.0 °F 75% 30.02 in 10.0 mi NNE 6.9 mph - 0.01 in   Clear
4:53 AM 68.0 °F - 62.1 °F 81% 30.02 in 10.0 mi North 5.8 mph - N/A   Clear
5:53 AM 66.9 °F - 62.1 °F 84% 30.02 in 10.0 mi NNE 4.6 mph - 0.02 in   Clear
6:53 AM 66.9 °F - 63.0 °F 87% 30.03 in 10.0 mi NNW 3.5 mph - 0.02 in   Clear
7:53 AM 70.0 °F - 64.0 °F 81% 30.03 in 10.0 mi NE 4.6 mph - 0.01 in   Clear
8:53 AM 75.9 °F - 66.9 °F 74% 30.04 in 10.0 mi Variable 3.5 mph - 0.02 in   Clear
9:53 AM 79.0 °F - 68.0 °F 69% 30.04 in 10.0 mi NE 4.6 mph - N/A   Clear
10:53 AM 82.0 °F 84.9 °F 68.0 °F 62% 30.04 in 10.0 mi Variable 3.5 mph - N/A   Clear
11:53 AM 84.0 °F 86.3 °F 66.0 °F 55% 30.04 in 10.0 mi Variable 4.6 mph - N/A   Clear
12:53 PM 84.9 °F 86.6 °F 64.9 °F 51% 30.02 in 10.0 mi East 6.9 mph - N/A   Clear
1:53 PM 88.0 °F 88.4 °F 62.1 °F 42% 30.00 in 10.0 mi Variable 5.8 mph - N/A   Scattered Clouds
2:53 PM 86.0 °F 86.1 °F 61.0 °F 43% 29.99 in 10.0 mi Variable 3.5 mph - N/A   Clear
3:53 PM 88.0 °F 88.4 °F 62.1 °F 42% 29.97 in 10.0 mi Variable 3.5 mph - N/A   Clear
4:53 PM 84.0 °F 88.4 °F 70.0 °F 63% 29.97 in 10.0 mi South 10.4 mph - N/A   Scattered Clouds
5:53 PM 80.6 °F 83.9 °F 69.8 °F 70% 29.97 in 10.0 mi South 9.2 mph - N/A   Clear
6:53 PM 78.1 °F - 70.0 °F 76% 29.98 in 10.0 mi South 5.8 mph - N/A   Clear
7:53 PM 77.0 °F - 70.0 °F 79% 29.99 in 10.0 mi SSW 3.5 mph - 0.02 in   Clear
8:53 PM 78.1 °F - 70.0 °F 76% 30.00 in 10.0 mi SW 3.5 mph - 0.01 in   Clear
9:53 PM 75.0 °F - 70.0 °F 84% 30.01 in 10.0 mi Calm Calm - 0.01 in   Clear
10:53 PM 73.9 °F - 70.0 °F 87% 30.02 in 10.0 mi Calm Calm - N/A   Clear
11:53 PM 73.9 °F - 70.0 °F 87% 30.01 in 10.0 mi NNW 3.5 mph - N/A   Clear